M I D A S
Marine Information and Data Acquisition System
Tripno 1817 of the Zeeleeuw from 2009-09-30 06:58:40 to 2009-09-30 13:44:59
Back to CruiseResearch ActivitiesStationsMapUnderway DataData graphs

EquipmentUnitsComments
TimeDGPSUTC
LatitudeDGPSDM.mWGS84
LongitudeDGPSDM.mWGS84
SpeedMeteo Stationm/sRelative wind speed
DirectionMeteo StationdegRelative wind direction
TemperatureMeteo Stationdeg CelciusAir temperature
PressureMeteo StationPaAtmospheric pressure
HumidityMeteo Station%Relative humidity
Missing or incorrect values are displayed as -999
Metereological data collected by the RV Zeeleeuw from 2009-09-30 06:32:28 to 2009-09-30 16:21:44
                                                                                    Next 1000 lines
Time Latitude Longitude Speed Direction Temperature Pressure Humidity
2009-09-30 06:32:38 51°13.661 2°55.959 -999 341 14.1 101900 45
2009-09-30 06:32:43 51°13.661 2°55.959 -999 337 14.1 101900 45
2009-09-30 06:32:48 51°13.661 2°55.96 -999 337 14.1 101900 45
2009-09-30 06:32:54 51°13.66 2°55.959 -999 345 14.1 101900 45
2009-09-30 06:32:59 51°13.659 2°55.959 -999 345 14.1 101900 45
2009-09-30 06:33:04 51°13.659 2°55.96 -999 348 14.1 101900 45
2009-09-30 06:33:09 51°13.659 2°55.96 -999 348 14.1 101900 45
2009-09-30 06:33:14 51°13.659 2°55.96 -999 281 14.1 101900 45
2009-09-30 06:33:19 51°13.66 2°55.96 -999 348 14.1 101900 45
2009-09-30 06:33:24 51°13.661 2°55.96 -999 357 14.1 101900 45
2009-09-30 06:33:29 51°13.661 2°55.96 -999 348 14.1 101900 45
2009-09-30 06:33:34 51°13.662 2°55.96 -999 348 14.1 101890 45
2009-09-30 06:33:39 51°13.662 2°55.96 -999 345 14.1 101890 45
2009-09-30 06:33:44 51°13.662 2°55.96 -999 342 14.1 101900 44
2009-09-30 06:33:49 51°13.662 2°55.96 -999 357 14.1 101900 44
2009-09-30 06:33:54 51°13.663 2°55.96 -999 357 14.1 101900 45
2009-09-30 06:33:59 51°13.663 2°55.96 -999 356 14.1 101900 45
2009-09-30 06:34:04 51°13.663 2°55.96 -999 351 14.1 101900 45
2009-09-30 06:34:09 51°13.664 2°55.96 -999 345 14.1 101900 45
2009-09-30 06:34:14 51°13.664 2°55.96 -999 343 14.1 101900 45
2009-09-30 06:34:19 51°13.664 2°55.96 -999 344 14.1 101900 45
2009-09-30 06:34:24 51°13.663 2°55.96 -999 344 14.1 101900 45
2009-09-30 06:34:29 51°13.663 2°55.96 -999 346 14.1 101900 45
2009-09-30 06:34:34 51°13.663 2°55.96 -999 350 14.1 101900 45
2009-09-30 06:34:39 51°13.663 2°55.96 -999 353 14.1 101900 45
2009-09-30 06:34:43 51°13.663 2°55.96 -999 352 14.1 101890 45
2009-09-30 06:34:48 51°13.662 2°55.96 -999 350 14.1 101890 45
2009-09-30 06:34:54 51°13.663 2°55.96 -999 349 14.1 101900 45
2009-09-30 06:34:59 51°13.663 2°55.96 -999 340 14.1 101900 45
2009-09-30 06:35:04 51°13.663 2°55.96 -999 340 14.1 101900 45
2009-09-30 06:35:09 51°13.663 2°55.96 -999 341 14.1 101900 45
2009-09-30 06:35:14 51°13.663 2°55.96 -999 341 14.1 101900 45
2009-09-30 06:35:19 51°13.663 2°55.96 -999 342 14.1 101900 45
2009-09-30 06:35:24 51°13.663 2°55.96 -999 344 14.1 101900 45
2009-09-30 06:35:28 51°13.663 2°55.96 -999 344 14.1 101900 45
2009-09-30 06:35:34 51°13.663 2°55.96 -999 344 14.1 101900 45
2009-09-30 06:35:39 51°13.663 2°55.96 -999 344 14.1 101900 45
2009-09-30 06:35:44 51°13.663 2°55.96 -999 281 14.1 101900 45
2009-09-30 06:35:49 51°13.663 2°55.96 -999 344 14.1 101900 45
2009-09-30 06:35:54 51°13.663 2°55.96 -999 344 14.1 101900 45
2009-09-30 06:35:59 51°13.663 2°55.96 -999 344 14.1 101900 45
2009-09-30 06:36:04 51°13.663 2°55.96 -999 344 14.1 101900 45
2009-09-30 06:36:09 51°13.663 2°55.96 -999 344 14.1 101900 45
2009-09-30 06:36:14 51°13.663 2°55.96 -999 344 14.1 101900 45
2009-09-30 06:36:19 51°13.663 2°55.96 -999 344 14.1 101900 45
2009-09-30 06:36:24 51°13.663 2°55.96 -999 344 14.1 101900 44
2009-09-30 06:36:28 51°13.663 2°55.96 -999 344 14.1 101900 44
2009-09-30 06:36:34 51°13.663 2°55.96 -999 344 14.1 101900 45
2009-09-30 06:36:39 51°13.662 2°55.96 -999 345 14.1 101900 45
2009-09-30 06:36:44 51°13.662 2°55.96 -999 345 14.1 101900 45
2009-09-30 06:36:49 51°13.662 2°55.96 -999 345 14.1 101900 45
2009-09-30 06:36:54 51°13.662 2°55.96 -999 345 14.1 101900 45
2009-09-30 06:36:59 51°13.662 2°55.96 -999 345 14.1 101900 45
2009-09-30 06:37:04 51°13.662 2°55.96 -999 345 14.1 101900 45
2009-09-30 06:37:09 51°13.662 2°55.96 -999 345 14.1 101900 45
2009-09-30 06:37:14 51°13.661 2°55.96 -999 344 14.1 101900 45
2009-09-30 06:37:19 51°13.661 2°55.96 -999 344 14.1 101900 45
2009-09-30 06:37:24 51°13.661 2°55.96 -999 344 14.1 101900 45
2009-09-30 06:37:29 51°13.66 2°55.96 -999 344 14.1 101900 45
2009-09-30 06:37:34 51°13.658 2°55.96 -999 344 14.1 101900 45
2009-09-30 06:37:39 51°13.66 2°55.96 -999 336 14.1 101900 45
2009-09-30 06:37:44 51°13.662 2°55.96 -999 336 14.1 101900 45
2009-09-30 06:37:48 51°13.661 2°55.96 -999 336 14.1 101900 45
2009-09-30 06:37:54 51°13.66 2°55.96 -999 335 14.1 101900 45
2009-09-30 06:37:59 51°13.66 2°55.96 -999 335 14.1 101900 45
2009-09-30 06:38:04 51°13.66 2°55.96 -999 337 14.1 101900 45
2009-09-30 06:38:09 51°13.661 2°55.96 -999 341 14.1 101900 45
2009-09-30 06:38:14 51°13.663 2°55.96 -999 341 14.2 101900 45
2009-09-30 06:38:19 51°13.664 2°55.96 -999 341 14.2 101900 45
2009-09-30 06:38:24 51°13.665 2°55.96 -999 341 14.1 101900 45
2009-09-30 06:38:29 51°13.666 2°55.96 -999 341 14.1 101900 45
2009-09-30 06:38:34 51°13.666 2°55.96 -999 341 14.1 101900 45
2009-09-30 06:38:39 51°13.666 2°55.96 -999 341 14.1 101900 45
2009-09-30 06:38:44 51°13.665 2°55.96 -999 341 14.1 101900 45
2009-09-30 06:38:49 51°13.664 2°55.96 -999 354 14.1 101900 45
2009-09-30 06:38:54 51°13.663 2°55.96 -999 354 14.1 101900 45
2009-09-30 06:38:59 51°13.663 2°55.96 -999 354 14.1 101900 45
2009-09-30 06:39:04 51°13.662 2°55.96 -999 354 14.1 101900 44
2009-09-30 06:39:09 51°13.662 2°55.96 -999 350 14.1 101900 44
2009-09-30 06:39:14 51°13.661 2°55.96 -999 350 14.2 101900 45
2009-09-30 06:39:19 51°13.661 2°55.96 -999 350 14.2 101900 45
2009-09-30 06:39:24 51°13.66 2°55.96 -999 350 14.2 101900 45
2009-09-30 06:39:28 51°13.66 2°55.96 -999 350 14.2 101900 45
2009-09-30 06:39:34 51°13.66 2°55.96 -999 350 14.1 101900 45
2009-09-30 06:39:39 51°13.661 2°55.96 -999 350 14.1 101900 45
2009-09-30 06:39:44 51°13.661 2°55.96 -999 350 14.1 101900 45
2009-09-30 06:39:49 51°13.661 2°55.96 -999 349 14.1 101900 45
2009-09-30 06:39:54 51°13.662 2°55.96 -999 349 14.1 101900 45
2009-09-30 06:39:59 51°13.662 2°55.96 -999 345 14.1 101900 45
2009-09-30 06:40:04 51°13.661 2°55.96 -999 345 14.1 101900 45
2009-09-30 06:40:09 51°13.661 2°55.96 -999 345 14.1 101900 45
2009-09-30 06:40:14 51°13.661 2°55.96 -999 345 14.1 101900 45
2009-09-30 06:40:19 51°13.66 2°55.96 -999 345 14.1 101900 45
2009-09-30 06:40:24 51°13.66 2°55.96 -999 345 14.1 101900 45
2009-09-30 06:40:28 51°13.66 2°55.96 -999 345 14.1 101900 45
2009-09-30 06:40:34 51°13.66 2°55.96 -999 345 14.1 101900 45
2009-09-30 06:40:39 51°13.66 2°55.96 -999 345 14.1 101900 45
2009-09-30 06:40:44 51°13.66 2°55.96 -999 345 14.2 101900 45
2009-09-30 06:40:49 51°13.66 2°55.96 -999 345 14.2 101900 45
2009-09-30 06:40:54 51°13.661 2°55.96 -999 345 14.1 101900 45
2009-09-30 06:40:59 51°13.661 2°55.96 -999 345 14.1 101900 45
2009-09-30 06:41:04 51°13.661 2°55.96 -999 346 14.1 101900 45
2009-09-30 06:41:09 51°13.661 2°55.96 -999 345 14.1 101900 45
2009-09-30 06:41:14 51°13.661 2°55.96 -999 345 14.1 101900 45
2009-09-30 06:41:19 51°13.662 2°55.96 -999 345 14.1 101900 45
2009-09-30 06:41:24 51°13.662 2°55.96 -999 281 14.1 101900 45
2009-09-30 06:41:29 51°13.662 2°55.96 -999 345 14.1 101900 45
2009-09-30 06:41:34 51°13.662 2°55.96 -999 345 14.2 101890 45
2009-09-30 06:41:39 51°13.662 2°55.96 -999 346 14.2 101890 45
2009-09-30 06:41:44 51°13.662 2°55.96 -999 346 14.2 101900 44
2009-09-30 06:41:49 51°13.662 2°55.96 -999 346 14.2 101900 44
2009-09-30 06:41:54 51°13.662 2°55.96 -999 346 14.2 101900 45
2009-09-30 06:41:59 51°13.662 2°55.96 -999 346 14.2 101900 45
2009-09-30 06:42:04 51°13.662 2°55.96 -999 346 14.2 101900 45
2009-09-30 06:42:09 51°13.662 2°55.96 -999 346 14.2 101900 45
2009-09-30 06:42:14 51°13.662 2°55.96 -999 281 14.2 101900 45
2009-09-30 06:42:19 51°13.662 2°55.96 -999 346 14.2 101900 45
2009-09-30 06:42:24 51°13.662 2°55.96 -999 346 14.2 101900 45
2009-09-30 06:42:29 51°13.662 2°55.96 -999 346 14.2 101900 45
2009-09-30 06:42:34 51°13.662 2°55.96 -999 346 14.2 101900 45
2009-09-30 06:42:39 51°13.662 2°55.96 -999 354 14.2 101900 45
2009-09-30 06:42:44 51°13.662 2°55.96 -999 354 14.2 101900 45
2009-09-30 06:42:48 51°13.662 2°55.96 -999 353 14.2 101900 45
2009-09-30 06:42:54 51°13.661 2°55.96 -999 353 14.2 101900 45
2009-09-30 06:42:59 51°13.662 2°55.96 -999 353 14.2 101900 45
2009-09-30 06:43:04 51°13.662 2°55.96 -999 353 14.2 101900 45
2009-09-30 06:43:09 51°13.662 2°55.96 -999 346 14.2 101900 45
2009-09-30 06:43:14 51°13.661 2°55.96 -999 346 14.2 101900 45
2009-09-30 06:43:19 51°13.661 2°55.96 -999 346 14.2 101900 45
2009-09-30 06:43:24 51°13.662 2°55.96 -999 347 14.2 101900 45
2009-09-30 06:43:29 51°13.662 2°55.96 -999 347 14.2 101900 45
2009-09-30 06:43:34 51°13.662 2°55.96 -999 346 14.2 101900 45
2009-09-30 06:43:39 51°13.662 2°55.96 -999 347 14.2 101900 45
2009-09-30 06:43:44 51°13.662 2°55.96 -999 281 14.2 101900 45
2009-09-30 06:43:49 51°13.662 2°55.96 -999 347 14.2 101900 45
2009-09-30 06:43:54 51°13.662 2°55.96 -999 347 14.2 101900 45
2009-09-30 06:43:59 51°13.662 2°55.96 -999 347 14.2 101900 45
2009-09-30 06:44:04 51°13.662 2°55.96 -999 346 14.2 101900 45
2009-09-30 06:44:09 51°13.662 2°55.96 -999 347 14.2 101900 45
2009-09-30 06:44:14 51°13.662 2°55.959 -999 347 14.2 101900 45
2009-09-30 06:44:19 51°13.662 2°55.959 -999 348 14.2 101900 45
2009-09-30 06:44:24 51°13.662 2°55.959 -999 350 14.2 101900 44
2009-09-30 06:44:29 51°13.662 2°55.959 -999 351 14.2 101900 44
2009-09-30 06:44:34 51°13.662 2°55.96 -999 352 14.2 101900 45
2009-09-30 06:44:39 51°13.662 2°55.96 -999 352 14.2 101900 45
2009-09-30 06:44:44 51°13.662 2°55.959 -999 352 14.2 101900 45
2009-09-30 06:44:49 51°13.663 2°55.96 -999 352 14.2 101900 45
2009-09-30 06:44:54 51°13.663 2°55.959 -999 351 14.2 101900 45
2009-09-30 06:44:59 51°13.663 2°55.959 -999 351 14.2 101900 45
2009-09-30 06:45:04 51°13.662 2°55.959 -999 351 14.2 101900 45
2009-09-30 06:45:09 51°13.662 2°55.959 -999 351 14.2 101900 45
2009-09-30 06:45:14 51°13.662 2°55.959 -999 351 14.2 101900 45
2009-09-30 06:45:19 51°13.662 2°55.959 -999 340 14.2 101900 45
2009-09-30 06:45:24 51°13.662 2°55.959 -999 340 14.2 101900 45
2009-09-30 06:45:29 51°13.662 2°55.959 -999 343 14.2 101900 45
2009-09-30 06:45:34 51°13.662 2°55.959 -999 345 14.2 101900 45
2009-09-30 06:45:39 51°13.662 2°55.959 -999 345 14.2 101900 45
2009-09-30 06:45:44 51°13.662 2°55.959 -999 281 14.2 101900 45
2009-09-30 06:45:49 51°13.662 2°55.959 -999 345 14.2 101900 45
2009-09-30 06:45:54 51°13.662 2°55.959 -999 345 14.2 101900 45
2009-09-30 06:45:59 51°13.662 2°55.959 -999 345 14.2 101900 45
2009-09-30 06:46:04 51°13.663 2°55.959 -999 345 14.2 101900 45
2009-09-30 06:46:09 51°13.663 2°55.959 -999 345 14.2 101900 45
2009-09-30 06:46:14 51°13.663 2°55.959 -999 345 14.3 101900 45
2009-09-30 06:46:19 51°13.663 2°55.959 -999 345 14.3 101900 45
2009-09-30 06:46:24 51°13.663 2°55.959 -999 345 14.2 101900 45
2009-09-30 06:46:28 51°13.663 2°55.959 -999 345 14.2 101900 45
2009-09-30 06:46:34 51°13.663 2°55.959 -999 345 14.2 101900 45
2009-09-30 06:46:39 51°13.663 2°55.959 -999 345 14.2 101900 45
2009-09-30 06:46:44 51°13.663 2°55.959 -999 345 14.2 101900 45
2009-09-30 06:46:48 51°13.663 2°55.959 -999 345 14.2 101900 45
2009-09-30 06:46:54 51°13.663 2°55.959 -999 345 14.3 101900 45
2009-09-30 06:46:59 51°13.663 2°55.959 -999 345 14.3 101900 45
2009-09-30 06:47:04 51°13.663 2°55.959 -999 345 14.3 101900 44
2009-09-30 06:47:09 51°13.663 2°55.959 -999 345 14.3 101900 44
2009-09-30 06:47:14 51°13.663 2°55.959 -999 281 14.3 101900 45
2009-09-30 06:47:19 51°13.663 2°55.958 -999 345 14.3 101900 45
2009-09-30 06:47:24 51°13.663 2°55.958 -999 345 14.3 101900 45
2009-09-30 06:47:29 51°13.663 2°55.958 -999 345 14.3 101900 45
2009-09-30 06:47:34 51°13.663 2°55.958 -999 345 14.3 101900 45
2009-09-30 06:47:39 51°13.663 2°55.958 -999 345 14.3 101900 45
2009-09-30 06:47:44 51°13.663 2°55.958 -999 345 14.3 101900 45
2009-09-30 06:47:48 51°13.663 2°55.958 -999 345 14.3 101900 45
2009-09-30 06:47:54 51°13.663 2°55.958 -999 345 14.3 101900 45
2009-09-30 06:47:59 51°13.663 2°55.958 -999 332 14.3 101900 45
2009-09-30 06:48:04 51°13.663 2°55.958 -999 335 14.3 101900 45
2009-09-30 06:48:09 51°13.663 2°55.958 -999 344 14.3 101900 45
2009-09-30 06:48:14 51°13.663 2°55.959 -999 353 14.3 101900 45
2009-09-30 06:48:19 51°13.663 2°55.958 -999 351 14.3 101900 45
2009-09-30 06:48:24 51°13.663 2°55.958 -999 351 14.3 101900 45
2009-09-30 06:48:28 51°13.663 2°55.958 -999 352 14.3 101900 45
2009-09-30 06:48:34 51°13.663 2°55.958 -999 352 14.3 101900 45
2009-09-30 06:48:39 51°13.663 2°55.958 -999 352 14.3 101900 45
2009-09-30 06:48:44 51°13.663 2°55.958 -999 353 14.3 101900 45
2009-09-30 06:48:49 51°13.663 2°55.958 -999 352 14.3 101900 45
2009-09-30 06:48:54 51°13.663 2°55.958 -999 352 14.3 101900 45
2009-09-30 06:48:59 51°13.663 2°55.958 0.2 352 14.3 101900 45
2009-09-30 06:49:04 51°13.663 2°55.958 0.1 352 14.3 101900 45
2009-09-30 06:49:09 51°13.663 2°55.958 -999 352 14.3 101900 45
2009-09-30 06:49:14 51°13.663 2°55.958 -999 352 14.3 101900 45
2009-09-30 06:49:19 51°13.663 2°55.958 -999 352 14.3 101900 45
2009-09-30 06:49:24 51°13.663 2°55.958 -999 352 14.3 101900 45
2009-09-30 06:49:29 51°13.663 2°55.958 -999 352 14.3 101900 45
2009-09-30 06:49:34 51°13.663 2°55.958 -999 352 14.3 101900 45
2009-09-30 06:49:39 51°13.663 2°55.958 -999 352 14.3 101900 45
2009-09-30 06:49:44 51°13.663 2°55.958 -999 281 14.3 101900 44
2009-09-30 06:49:49 51°13.663 2°55.958 -999 340 14.3 101900 44
2009-09-30 06:49:54 51°13.663 2°55.958 -999 340 14.4 101900 45
2009-09-30 06:49:59 51°13.663 2°55.958 -999 340 14.4 101900 45
2009-09-30 06:50:04 51°13.663 2°55.958 -999 340 14.4 101900 45
2009-09-30 06:50:09 51°13.663 2°55.958 -999 340 14.4 101900 45
2009-09-30 06:50:14 51°13.663 2°55.958 -999 340 14.4 101890 45
2009-09-30 06:50:19 51°13.663 2°55.958 -999 340 14.4 101890 45
2009-09-30 06:50:24 51°13.663 2°55.958 -999 281 14.3 101900 45
2009-09-30 06:50:29 51°13.662 2°55.958 -999 340 14.3 101900 45
2009-09-30 06:50:34 51°13.662 2°55.958 -999 340 14.3 101900 45
2009-09-30 06:50:39 51°13.662 2°55.958 -999 340 14.3 101900 45
2009-09-30 06:50:44 51°13.663 2°55.959 -999 344 14.3 101900 45
2009-09-30 06:50:49 51°13.663 2°55.959 -999 352 14.3 101900 45
2009-09-30 06:50:54 51°13.663 2°55.959 -999 352 14.4 101900 45
2009-09-30 06:50:59 51°13.662 2°55.958 -999 352 14.4 101900 45
2009-09-30 06:51:04 51°13.662 2°55.958 -999 352 14.4 101900 45
2009-09-30 06:51:09 51°13.662 2°55.959 -999 352 14.4 101900 45
2009-09-30 06:51:14 51°13.662 2°55.959 -999 352 14.4 101900 45
2009-09-30 06:51:19 51°13.662 2°55.959 -999 352 14.4 101900 45
2009-09-30 06:51:24 51°13.662 2°55.959 -999 351 14.4 101900 45
2009-09-30 06:51:29 51°13.662 2°55.959 -999 351 14.4 101900 45
2009-09-30 06:51:34 51°13.662 2°55.959 -999 351 14.4 101900 45
2009-09-30 06:51:39 51°13.662 2°55.959 -999 351 14.4 101900 45
2009-09-30 06:51:44 51°13.662 2°55.959 -999 351 14.4 101890 45
2009-09-30 06:51:49 51°13.662 2°55.959 -999 351 14.4 101890 45
2009-09-30 06:51:54 51°13.662 2°55.959 -999 351 14.4 101900 45
2009-09-30 06:51:59 51°13.662 2°55.959 -999 351 14.4 101900 45
2009-09-30 06:52:04 51°13.662 2°55.959 -999 351 14.4 101900 45
2009-09-30 06:52:09 51°13.662 2°55.959 -999 350 14.4 101900 45
2009-09-30 06:52:14 51°13.662 2°55.959 -999 350 14.4 101900 45
2009-09-30 06:52:19 51°13.662 2°55.959 -999 351 14.4 101900 45
2009-09-30 06:52:24 51°13.662 2°55.959 -999 350 14.4 101900 44
2009-09-30 06:52:29 51°13.662 2°55.959 -999 348 14.4 101900 44
2009-09-30 06:52:34 51°13.662 2°55.959 -999 351 14.4 101900 45
2009-09-30 06:52:39 51°13.662 2°55.959 -999 351 14.4 101900 45
2009-09-30 06:52:44 51°13.662 2°55.959 -999 351 14.4 101900 45
2009-09-30 06:52:49 51°13.662 2°55.959 -999 352 14.4 101900 45
2009-09-30 06:52:54 51°13.662 2°55.959 -999 351 14.4 101900 45
2009-09-30 06:52:59 51°13.662 2°55.959 -999 354 14.4 101900 45
2009-09-30 06:53:04 51°13.662 2°55.959 -999 355 14.4 101900 45
2009-09-30 06:53:09 51°13.663 2°55.959 -999 355 14.4 101900 45
2009-09-30 06:53:14 51°13.663 2°55.959 -999 355 14.4 101900 45
2009-09-30 06:53:19 51°13.662 2°55.959 -999 355 14.4 101900 45
2009-09-30 06:53:24 51°13.662 2°55.959 -999 355 14.4 101890 45
2009-09-30 06:53:29 51°13.662 2°55.959 -999 354 14.4 101890 45
2009-09-30 06:53:34 51°13.662 2°55.959 -999 354 14.4 101890 45
2009-09-30 06:53:39 51°13.662 2°55.959 -999 -999 14.4 101890 45
2009-09-30 06:53:44 51°13.662 2°55.959 -999 356 14.4 101890 45
2009-09-30 06:53:49 51°13.662 2°55.959 -999 354 14.4 101890 45
2009-09-30 06:53:54 51°13.662 2°55.959 -999 354 14.4 101890 45
2009-09-30 06:53:59 51°13.662 2°55.959 -999 353 14.4 101890 45
2009-09-30 06:54:04 51°13.662 2°55.959 -999 352 14.4 101890 45
2009-09-30 06:54:09 51°13.662 2°55.959 -999 351 14.4 101890 45
2009-09-30 06:54:14 51°13.662 2°55.959 -999 352 14.4 101900 45
2009-09-30 06:54:19 51°13.662 2°55.959 -999 354 14.4 101900 45
2009-09-30 06:54:24 51°13.662 2°55.959 -999 353 14.4 101890 45
2009-09-30 06:54:29 51°13.662 2°55.96 -999 351 14.4 101890 45
2009-09-30 06:54:34 51°13.662 2°55.959 -999 351 14.4 101890 45
2009-09-30 06:54:39 51°13.663 2°55.959 -999 355 14.4 101890 45
2009-09-30 06:54:44 51°13.663 2°55.96 -999 355 14.4 101900 45
2009-09-30 06:54:49 51°13.663 2°55.96 -999 355 14.4 101900 45
2009-09-30 06:54:54 51°13.663 2°55.96 -999 355 14.4 101900 45
2009-09-30 06:54:59 51°13.663 2°55.96 -999 347 14.4 101900 45
2009-09-30 06:55:04 51°13.663 2°55.96 -999 347 14.4 101900 44
2009-09-30 06:55:09 51°13.663 2°55.96 -999 347 14.4 101900 44
2009-09-30 06:55:14 51°13.663 2°55.96 -999 347 14.4 101900 45
2009-09-30 06:55:19 51°13.663 2°55.96 -999 352 14.4 101900 45
2009-09-30 06:55:24 51°13.663 2°55.96 -999 353 14.4 101900 45
2009-09-30 06:55:29 51°13.663 2°55.96 -999 353 14.4 101900 45
2009-09-30 06:55:34 51°13.664 2°55.959 -999 352 14.4 101900 44
2009-09-30 06:55:39 51°13.664 2°55.959 -999 347 14.4 101900 44
2009-09-30 06:55:44 51°13.664 2°55.959 -999 347 14.4 101900 45
2009-09-30 06:55:48 51°13.664 2°55.959 -999 347 14.4 101900 45
2009-09-30 06:55:54 51°13.664 2°55.959 -999 347 14.4 101900 45
2009-09-30 06:55:59 51°13.664 2°55.959 -999 348 14.4 101900 45
2009-09-30 06:56:04 51°13.664 2°55.959 -999 348 14.4 101900 45
2009-09-30 06:56:09 51°13.664 2°55.959 -999 348 14.4 101900 45
2009-09-30 06:56:14 51°13.664 2°55.959 -999 348 14.4 101890 45
2009-09-30 06:56:19 51°13.664 2°55.959 -999 349 14.4 101890 45
2009-09-30 06:56:24 51°13.664 2°55.959 -999 349 14.4 101900 45
2009-09-30 06:56:29 51°13.664 2°55.959 -999 349 14.4 101900 45
2009-09-30 06:56:34 51°13.664 2°55.959 -999 349 14.4 101900 45
2009-09-30 06:56:39 51°13.664 2°55.959 -999 349 14.4 101900 45
2009-09-30 06:56:44 51°13.664 2°55.959 -999 349 14.4 101900 45
2009-09-30 06:56:49 51°13.664 2°55.959 -999 351 14.4 101900 45
2009-09-30 06:56:54 51°13.664 2°55.959 -999 353 14.4 101900 45
2009-09-30 06:56:59 51°13.664 2°55.959 -999 354 14.4 101900 45
2009-09-30 06:57:04 51°13.664 2°55.959 -999 353 14.4 101900 45
2009-09-30 06:57:09 51°13.664 2°55.959 -999 354 14.4 101900 45
2009-09-30 06:57:14 51°13.664 2°55.959 -999 355 14.4 101900 45
2009-09-30 06:57:19 51°13.664 2°55.959 -999 355 14.4 101900 45
2009-09-30 06:57:24 51°13.664 2°55.959 -999 355 14.4 101900 45
2009-09-30 06:57:28 51°13.664 2°55.959 -999 4 14.4 101900 45
2009-09-30 06:57:33 51°13.664 2°55.959 -999 3 14.4 101900 45
2009-09-30 06:57:39 51°13.664 2°55.96 -999 357 14.4 101900 45
2009-09-30 06:57:44 51°13.664 2°55.959 -999 357 14.4 101900 44
2009-09-30 06:57:49 51°13.664 2°55.959 -999 350 14.4 101900 44
2009-09-30 06:57:54 51°13.664 2°55.959 -999 350 14.4 101900 45
2009-09-30 06:57:59 51°13.664 2°55.959 -999 354 14.4 101900 45
2009-09-30 06:58:04 51°13.664 2°55.96 -999 354 14.4 101900 45
2009-09-30 06:58:09 51°13.663 2°55.959 -999 353 14.4 101900 45
2009-09-30 06:58:14 51°13.663 2°55.959 -999 353 14.4 101900 45
2009-09-30 06:58:19 51°13.663 2°55.96 -999 347 14.4 101900 45
2009-09-30 06:58:24 51°13.663 2°55.96 -999 347 14.4 101890 45
2009-09-30 06:58:29 51°13.663 2°55.96 -999 352 14.4 101890 45
2009-09-30 06:58:34 51°13.663 2°55.96 -999 352 14.4 101900 45
2009-09-30 06:58:39 51°13.663 2°55.96 -999 352 14.4 101900 45
2009-09-30 06:58:44 51°13.663 2°55.96 -999 352 14.4 101900 45
2009-09-30 06:58:49 51°13.663 2°55.96 -999 352 14.4 101900 45
2009-09-30 06:58:54 51°13.663 2°55.96 -999 351 14.4 101890 45
2009-09-30 06:58:59 51°13.663 2°55.96 -999 351 14.4 101890 45
2009-09-30 06:59:04 51°13.663 2°55.961 -999 351 14.4 101900 45
2009-09-30 06:59:09 51°13.663 2°55.961 -999 352 14.4 101900 45
2009-09-30 06:59:14 51°13.662 2°55.96 -999 351 14.5 101900 45
2009-09-30 06:59:19 51°13.662 2°55.96 -999 352 14.5 101900 45
2009-09-30 06:59:24 51°13.662 2°55.96 -999 351 14.5 101900 45
2009-09-30 06:59:29 51°13.662 2°55.961 -999 351 14.5 101900 45
2009-09-30 06:59:34 51°13.662 2°55.961 -999 351 14.5 101900 45
2009-09-30 06:59:39 51°13.662 2°55.96 -999 355 14.5 101900 45
2009-09-30 06:59:44 51°13.662 2°55.96 -999 355 14.5 101900 45
2009-09-30 06:59:49 51°13.662 2°55.96 -999 356 14.5 101900 45
2009-09-30 06:59:54 51°13.662 2°55.96 -999 356 14.5 101900 45
2009-09-30 06:59:59 51°13.662 2°55.96 -999 356 14.5 101900 45
2009-09-30 07:00:04 51°13.662 2°55.959 -999 356 14.5 101890 45
2009-09-30 07:00:09 51°13.662 2°55.958 -999 356 14.5 101890 45
2009-09-30 07:00:14 51°13.662 2°55.957 -999 356 14.5 101900 45
2009-09-30 07:00:19 51°13.663 2°55.955 -999 17 14.5 101900 45
2009-09-30 07:00:24 51°13.664 2°55.953 -999 24 14.5 101890 44
2009-09-30 07:00:29 51°13.664 2°55.95 -999 29 14.5 101890 44
2009-09-30 07:00:34 51°13.665 2°55.946 -999 34 14.5 101890 45
2009-09-30 07:00:39 51°13.667 2°55.942 -999 32 14.5 101890 45
2009-09-30 07:00:45 51°13.668 2°55.937 -999 32 14.5 101890 45
2009-09-30 07:00:51 51°13.67 2°55.931 -999 37 14.5 101890 45
2009-09-30 07:00:57 51°13.672 2°55.925 -999 39 14.5 101890 45
2009-09-30 07:01:02 51°13.674 2°55.92 -999 38 14.5 101890 45
2009-09-30 07:01:08 51°13.675 2°55.914 -999 40 14.6 101890 45
2009-09-30 07:01:12 51°13.677 2°55.909 -999 44 14.6 101890 45
2009-09-30 07:01:17 51°13.678 2°55.904 -999 43 14.6 101890 45
2009-09-30 07:01:23 51°13.68 2°55.897 -999 41 14.6 101890 45
2009-09-30 07:01:28 51°13.682 2°55.891 0.7 22 14.6 101890 45
2009-09-30 07:01:32 51°13.682 2°55.886 1.1 37 14.6 101890 45
2009-09-30 07:01:37 51°13.684 2°55.879 1.2 21 14.6 101890 45
2009-09-30 07:01:43 51°13.685 2°55.872 1.4 33 14.6 101890 45
2009-09-30 07:01:48 51°13.686 2°55.865 1.6 22 14.6 101890 46
2009-09-30 07:01:53 51°13.687 2°55.858 1.7 37 14.6 101890 46
2009-09-30 07:01:57 51°13.688 2°55.853 1.7 25 14.6 101890 46
2009-09-30 07:02:03 51°13.689 2°55.845 0.1 36 14.6 101890 46
2009-09-30 07:02:08 51°13.69 2°55.839 0.1 25 14.6 101890 47
2009-09-30 07:02:13 51°13.691 2°55.833 -999 36 14.6 101890 47
2009-09-30 07:02:17 51°13.691 2°55.828 -999 24 14.7 101890 45
2009-09-30 07:02:23 51°13.692 2°55.821 -999 36 14.7 101890 45
2009-09-30 07:02:28 51°13.692 2°55.815 -999 24 14.7 101890 45
2009-09-30 07:02:33 51°13.692 2°55.809 -999 36 14.7 101890 45
2009-09-30 07:02:38 51°13.692 2°55.804 -999 24 14.7 101890 45
2009-09-30 07:02:43 51°13.692 2°55.798 -999 36 14.7 101890 45
2009-09-30 07:02:48 51°13.692 2°55.793 -999 24 14.8 101890 45
2009-09-30 07:02:52 51°13.692 2°55.789 -999 36 14.8 101890 45
2009-09-30 07:02:58 51°13.692 2°55.783 -999 24 14.8 101890 45
2009-09-30 07:03:02 51°13.692 2°55.779 0.1 30 14.8 101890 45
2009-09-30 07:03:07 51°13.692 2°55.775 0.1 20 14.8 101890 45
2009-09-30 07:03:12 51°13.691 2°55.771 0.1 35 14.8 101890 45
2009-09-30 07:03:17 51°13.691 2°55.769 0.1 24 14.8 101890 46
2009-09-30 07:03:22 51°13.692 2°55.769 -999 35 14.8 101890 46
2009-09-30 07:03:27 51°13.693 2°55.77 -999 24 14.8 101890 46
2009-09-30 07:03:32 51°13.694 2°55.773 -999 36 14.8 101890 46
2009-09-30 07:03:36 51°13.696 2°55.775 -999 31 14.8 101890 45
2009-09-30 07:03:41 51°13.698 2°55.778 0.1 33 14.8 101890 45
2009-09-30 07:03:46 51°13.701 2°55.78 0.1 23 14.9 101890 45
2009-09-30 07:03:51 51°13.703 2°55.782 -999 35 14.9 101890 45
2009-09-30 07:03:56 51°13.705 2°55.783 -999 24 14.9 101900 47
2009-09-30 07:04:01 51°13.706 2°55.784 -999 253 14.9 101900 47
2009-09-30 07:04:05 51°13.706 2°55.784 -999 252 14.9 101890 46
2009-09-30 07:04:10 51°13.706 2°55.784 -999 251 14.9 101890 46
2009-09-30 07:04:15 51°13.706 2°55.784 -999 251 14.9 101890 45
2009-09-30 07:04:20 51°13.704 2°55.784 -999 268 14.9 101890 45
2009-09-30 07:04:25 51°13.703 2°55.784 -999 269 14.9 101890 45
2009-09-30 07:04:29 51°13.702 2°55.784 -999 35 14.9 101890 45
2009-09-30 07:04:34 51°13.701 2°55.784 -999 29 14.9 101890 46
2009-09-30 07:04:40 51°13.701 2°55.784 -999 36 14.9 101890 46
2009-09-30 07:04:45 51°13.701 2°55.784 -999 24 15 101890 46
2009-09-30 07:04:52 51°13.703 2°55.784 -999 316 15 101890 46
2009-09-30 07:04:57 51°13.706 2°55.783 -999 23 15 101890 46
2009-09-30 07:05:03 51°13.709 2°55.782 -999 36 15 101890 46
2009-09-30 07:05:07 51°13.711 2°55.781 -999 24 15 101890 46
2009-09-30 07:05:12 51°13.714 2°55.779 -999 35 15 101890 46
2009-09-30 07:05:17 51°13.716 2°55.776 -999 24 15.1 101890 46
2009-09-30 07:05:22 51°13.719 2°55.773 -999 35 15.1 101890 46
2009-09-30 07:05:27 51°13.722 2°55.77 -999 24 15.1 101890 46
2009-09-30 07:05:32 51°13.724 2°55.767 -999 36 15.1 101890 46
2009-09-30 07:05:36 51°13.727 2°55.763 -999 317 15.1 101890 46
2009-09-30 07:05:41 51°13.73 2°55.759 0.1 318 15.1 101890 46
2009-09-30 07:05:46 51°13.733 2°55.754 0.1 22 15.1 101890 45
2009-09-30 07:05:51 51°13.736 2°55.749 -999 321 15.1 101890 45
2009-09-30 07:05:56 51°13.74 2°55.743 -999 320 15.1 101890 46
2009-09-30 07:06:01 51°13.744 2°55.738 -999 318 15.1 101890 46
2009-09-30 07:06:05 51°13.748 2°55.733 -999 317 15.2 101890 46
2009-09-30 07:06:10 51°13.752 2°55.726 -999 323 15.2 101890 46
2009-09-30 07:06:15 51°13.757 2°55.72 -999 320 15.2 101890 46
2009-09-30 07:06:20 51°13.761 2°55.713 -999 322 15.2 101890 46
2009-09-30 07:06:25 51°13.766 2°55.707 -999 323 15.2 101890 46
2009-09-30 07:06:29 51°13.77 2°55.701 2.5 327 15.2 101890 46
2009-09-30 07:06:34 51°13.776 2°55.695 2.6 329 15.2 101890 46
2009-09-30 07:06:39 51°13.781 2°55.689 3 330 15.2 101890 46
2009-09-30 07:06:44 51°13.787 2°55.682 3.2 331 15.2 101890 46
2009-09-30 07:06:49 51°13.792 2°55.675 4.3 326 15.2 101890 46
2009-09-30 07:06:54 51°13.798 2°55.668 4 329 15.2 101890 48
2009-09-30 07:06:59 51°13.805 2°55.662 3.3 340 15.2 101890 48
2009-09-30 07:07:04 51°13.811 2°55.656 3 333 15.3 101890 43
2009-09-30 07:07:09 51°13.818 2°55.649 3.3 324 15.3 101890 43
2009-09-30 07:07:14 51°13.825 2°55.643 2.9 321 15.3 101890 46
2009-09-30 07:07:19 51°13.832 2°55.637 3 324 15.3 101890 46
2009-09-30 07:07:24 51°13.839 2°55.632 3.3 328 15.3 101890 48
2009-09-30 07:07:29 51°13.846 2°55.625 3.5 326 15.3 101890 48
2009-09-30 07:07:34 51°13.853 2°55.619 3.8 327 15.4 101890 46
2009-09-30 07:07:39 51°13.861 2°55.613 3.5 324 15.4 101890 46
2009-09-30 07:07:44 51°13.868 2°55.607 3.4 322 15.4 101890 44
2009-09-30 07:07:49 51°13.875 2°55.6 3.1 318 15.4 101890 44
2009-09-30 07:07:54 51°13.883 2°55.594 3.5 322 15.4 101890 47
2009-09-30 07:07:59 51°13.891 2°55.588 1.9 330 15.4 101890 47
2009-09-30 07:08:04 51°13.899 2°55.582 3 324 15.5 101890 49
2009-09-30 07:08:09 51°13.907 2°55.576 3.9 329 15.5 101890 49
2009-09-30 07:08:14 51°13.915 2°55.57 3.9 328 15.5 101890 42
2009-09-30 07:08:19 51°13.923 2°55.564 4.3 327 15.5 101890 42
2009-09-30 07:08:24 51°13.931 2°55.558 5.1 326 15.5 101890 49
2009-09-30 07:08:29 51°13.939 2°55.552 5.5 328 15.5 101890 49
2009-09-30 07:08:34 51°13.947 2°55.546 4.7 325 15.6 101890 50
2009-09-30 07:08:39 51°13.955 2°55.539 4.9 320 15.6 101890 50
2009-09-30 07:08:44 51°13.964 2°55.533 4.5 317 15.6 101890 46
2009-09-30 07:08:49 51°13.972 2°55.527 4.4 322 15.6 101890 46
2009-09-30 07:08:54 51°13.98 2°55.521 4.2 317 15.7 101890 48
2009-09-30 07:08:59 51°13.989 2°55.514 4.4 323 15.7 101890 48
2009-09-30 07:09:04 51°13.998 2°55.507 3.6 323 15.7 101890 44
2009-09-30 07:09:09 51°14.007 2°55.501 4.5 326 15.7 101890 44
2009-09-30 07:09:14 51°14.016 2°55.494 4.6 327 15.8 101890 49
2009-09-30 07:09:19 51°14.024 2°55.488 4.2 325 15.8 101890 49
2009-09-30 07:09:24 51°14.033 2°55.481 6.1 324 15.8 101890 44
2009-09-30 07:09:29 51°14.042 2°55.475 5.5 327 15.8 101890 44
2009-09-30 07:09:34 51°14.051 2°55.469 5.2 323 15.9 101890 49
2009-09-30 07:09:39 51°14.061 2°55.463 6.3 321 15.9 101890 49
2009-09-30 07:09:44 51°14.07 2°55.456 6.5 322 15.9 101890 43
2009-09-30 07:09:49 51°14.079 2°55.45 5.6 323 15.9 101890 43
2009-09-30 07:09:54 51°14.088 2°55.444 4.3 317 15.9 101890 44
2009-09-30 07:09:59 51°14.097 2°55.437 5.5 321 15.9 101890 44
2009-09-30 07:10:04 51°14.106 2°55.43 6.2 320 16 101890 49
2009-09-30 07:10:09 51°14.115 2°55.423 5.5 320 16 101890 49
2009-09-30 07:10:14 51°14.123 2°55.416 5.5 320 16 101880 47
2009-09-30 07:10:19 51°14.132 2°55.409 5.8 322 16 101880 47
2009-09-30 07:10:24 51°14.141 2°55.401 5.9 322 16 101880 50
2009-09-30 07:10:29 51°14.149 2°55.393 5.4 324 16 101880 50
2009-09-30 07:10:34 51°14.158 2°55.385 5.8 322 16.1 101890 50
2009-09-30 07:10:39 51°14.166 2°55.377 6.5 323 16.1 101890 50
2009-09-30 07:10:44 51°14.174 2°55.368 6.2 323 16.1 101880 44
2009-09-30 07:10:49 51°14.182 2°55.359 6.6 323 16.1 101880 44
2009-09-30 07:10:54 51°14.19 2°55.35 5.5 324 16.1 101880 46
2009-09-30 07:10:59 51°14.198 2°55.34 6.2 324 16.1 101880 46
2009-09-30 07:11:04 51°14.205 2°55.329 6 324 16.2 101880 49
2009-09-30 07:11:09 51°14.213 2°55.319 5.9 323 16.2 101880 49
2009-09-30 07:11:14 51°14.22 2°55.308 6.6 324 16.2 101880 49
2009-09-30 07:11:19 51°14.228 2°55.296 6.5 326 16.2 101880 49
2009-09-30 07:11:24 51°14.235 2°55.284 6.1 325 16.2 101880 45
2009-09-30 07:11:29 51°14.242 2°55.272 6.2 326 16.2 101880 45
2009-09-30 07:11:34 51°14.25 2°55.259 6.6 324 16.3 101880 47
2009-09-30 07:11:39 51°14.257 2°55.246 7.3 325 16.3 101880 47
2009-09-30 07:11:44 51°14.265 2°55.233 6.5 326 16.3 101890 45
2009-09-30 07:11:49 51°14.272 2°55.219 6.5 326 16.3 101890 45
2009-09-30 07:11:54 51°14.28 2°55.206 7.2 325 16.3 101880 50
2009-09-30 07:11:59 51°14.288 2°55.192 7.7 325 16.3 101880 50
2009-09-30 07:12:04 51°14.295 2°55.178 7.3 325 16.3 101880 46
2009-09-30 07:12:09 51°14.303 2°55.163 7.2 326 16.3 101880 46
2009-09-30 07:12:14 51°14.31 2°55.148 7.9 325 16.3 101880 44
2009-09-30 07:12:19 51°14.318 2°55.133 7 326 16.3 101880 44
2009-09-30 07:12:24 51°14.326 2°55.117 7.7 325 16.4 101880 49
2009-09-30 07:12:29 51°14.334 2°55.102 7.7 325 16.4 101880 49
2009-09-30 07:12:34 51°14.342 2°55.088 8 326 16.4 101870 45
2009-09-30 07:12:39 51°14.349 2°55.072 8.2 325 16.4 101870 45
2009-09-30 07:12:44 51°14.358 2°55.057 6.9 326 16.4 101880 50
2009-09-30 07:12:49 51°14.366 2°55.043 7.1 328 16.4 101880 50
2009-09-30 07:12:54 51°14.375 2°55.028 7.6 327 16.4 101880 49
2009-09-30 07:12:59 51°14.384 2°55.014 7 327 16.4 101880 49
2009-09-30 07:13:04 51°14.393 2°54.999 8.2 326 16.4 101860 44
2009-09-30 07:13:09 51°14.402 2°54.985 8.8 328 16.4 101860 44
2009-09-30 07:13:14 51°14.411 2°54.97 6.8 325 16.4 101870 45
2009-09-30 07:13:19 51°14.42 2°54.954 8.7 327 16.4 101870 45
2009-09-30 07:13:24 51°14.43 2°54.939 8.8 326 16.5 101880 44
2009-09-30 07:13:29 51°14.439 2°54.922 8.4 326 16.5 101880 44
2009-09-30 07:13:34 51°14.449 2°54.906 8 327 16.4 101870 49
2009-09-30 07:13:39 51°14.459 2°54.89 7.7 328 16.4 101870 49
2009-09-30 07:13:44 51°14.47 2°54.874 7.5 326 16.5 101880 45
2009-09-30 07:13:49 51°14.481 2°54.858 8.1 327 16.5 101880 45
2009-09-30 07:13:54 51°14.492 2°54.842 8.9 326 16.5 101870 49
2009-09-30 07:13:59 51°14.503 2°54.825 9.2 327 16.5 101870 49
2009-09-30 07:14:04 51°14.514 2°54.807 9.3 327 16.5 101870 44
2009-09-30 07:14:09 51°14.524 2°54.79 7.3 328 16.5 101870 44
2009-09-30 07:14:14 51°14.535 2°54.773 9.5 327 16.5 101870 48
2009-09-30 07:14:19 51°14.546 2°54.755 8.9 325 16.5 101870 48
2009-09-30 07:14:24 51°14.557 2°54.738 8.8 326 16.5 101870 44
2009-09-30 07:14:29 51°14.568 2°54.72 9.3 326 16.5 101870 44
2009-09-30 07:14:34 51°14.579 2°54.703 8.1 325 16.5 101870 48
2009-09-30 07:14:39 51°14.59 2°54.685 9 325 16.5 101870 48
2009-09-30 07:14:44 51°14.601 2°54.667 8.3 325 16.5 101870 47
2009-09-30 07:14:49 51°14.612 2°54.65 8.2 326 16.5 101870 47
2009-09-30 07:14:54 51°14.623 2°54.632 7.7 327 16.5 101870 47
2009-09-30 07:14:59 51°14.634 2°54.614 6.8 327 16.5 101870 47
2009-09-30 07:15:04 51°14.644 2°54.597 7 327 16.5 101870 48
2009-09-30 07:15:09 51°14.655 2°54.579 8.4 326 16.5 101870 48
2009-09-30 07:15:14 51°14.666 2°54.561 8.1 327 16.5 101870 49
2009-09-30 07:15:19 51°14.676 2°54.543 7.5 327 16.5 101870 49
2009-09-30 07:15:24 51°14.687 2°54.525 7.7 327 16.5 101870 47
2009-09-30 07:15:29 51°14.698 2°54.508 8.2 327 16.5 101870 47
2009-09-30 07:15:34 51°14.709 2°54.49 8.3 327 16.5 101870 49
2009-09-30 07:15:39 51°14.72 2°54.473 9.5 327 16.5 101870 49
2009-09-30 07:15:44 51°14.731 2°54.455 8 326 16.6 101870 49
2009-09-30 07:15:49 51°14.742 2°54.438 8.2 326 16.6 101870 49
2009-09-30 07:15:54 51°14.753 2°54.421 7.9 326 16.5 101860 46
2009-09-30 07:15:59 51°14.765 2°54.404 8.9 327 16.5 101860 46
2009-09-30 07:16:04 51°14.776 2°54.388 8.7 326 16.5 101870 48
2009-09-30 07:16:09 51°14.788 2°54.372 8.9 325 16.5 101870 48
2009-09-30 07:16:14 51°14.799 2°54.356 8.3 325 16.5 101860 44
2009-09-30 07:16:19 51°14.811 2°54.341 8.1 325 16.5 101860 44
2009-09-30 07:16:24 51°14.823 2°54.325 8.8 325 16.5 101870 48
2009-09-30 07:16:29 51°14.835 2°54.309 8.7 324 16.5 101870 48
2009-09-30 07:16:34 51°14.847 2°54.294 9.1 326 16.5 101870 49
2009-09-30 07:16:39 51°14.859 2°54.279 9 324 16.5 101870 49
2009-09-30 07:16:44 51°14.871 2°54.263 8.6 324 16.5 101860 47
2009-09-30 07:16:49 51°14.882 2°54.248 8.9 324 16.5 101860 47
2009-09-30 07:16:54 51°14.895 2°54.234 8.3 323 16.5 101860 48
2009-09-30 07:16:59 51°14.907 2°54.219 7.1 324 16.5 101860 48
2009-09-30 07:17:04 51°14.919 2°54.206 8.8 324 16.5 101870 47
2009-09-30 07:17:09 51°14.931 2°54.191 7.7 323 16.5 101870 47
2009-09-30 07:17:14 51°14.944 2°54.177 8.8 324 16.5 101870 45
2009-09-30 07:17:19 51°14.956 2°54.163 9 323 16.5 101870 45
2009-09-30 07:17:24 51°14.969 2°54.149 8.6 323 16.5 101870 46
2009-09-30 07:17:29 51°14.981 2°54.135 8.6 324 16.5 101870 46
2009-09-30 07:17:34 51°14.994 2°54.122 8.2 325 16.5 101870 45
2009-09-30 07:17:39 51°15.007 2°54.108 7.3 323 16.5 101870 45
2009-09-30 07:17:44 51°15.019 2°54.095 7.6 326 16.5 101870 44
2009-09-30 07:17:49 51°15.032 2°54.081 9.3 324 16.5 101870 44
2009-09-30 07:17:54 51°15.044 2°54.068 9.2 325 16.5 101870 48
2009-09-30 07:17:59 51°15.056 2°54.053 9.5 326 16.5 101870 48
2009-09-30 07:18:04 51°15.069 2°54.039 8.6 325 16.6 101870 45
2009-09-30 07:18:09 51°15.08 2°54.023 8.8 326 16.6 101870 45
2009-09-30 07:18:14 51°15.092 2°54.008 8.8 324 16.6 101860 47
2009-09-30 07:18:19 51°15.103 2°53.992 9 325 16.6 101860 47
2009-09-30 07:18:24 51°15.114 2°53.974 8.7 326 16.6 101860 44
2009-09-30 07:18:29 51°15.124 2°53.957 9.5 326 16.6 101860 44
2009-09-30 07:18:34 51°15.134 2°53.938 8.4 326 16.6 101870 48
2009-09-30 07:18:39 51°15.144 2°53.92 8.4 329 16.6 101870 48
2009-09-30 07:18:44 51°15.152 2°53.9 8.5 329 16.6 101860 44
2009-09-30 07:18:49 51°15.159 2°53.879 8.6 329 16.6 101860 44
2009-09-30 07:18:54 51°15.166 2°53.857 9.4 331 16.6 101870 44
2009-09-30 07:18:59 51°15.173 2°53.835 9.3 331 16.6 101870 44
2009-09-30 07:19:04 51°15.178 2°53.813 9.5 333 16.6 101870 48
2009-09-30 07:19:09 51°15.182 2°53.789 9.4 332 16.6 101870 48
2009-09-30 07:19:13 51°15.184 2°53.77 9.1 334 16.6 101870 47
2009-09-30 07:19:19 51°15.188 2°53.742 9.8 332 16.6 101870 47
2009-09-30 07:19:24 51°15.189 2°53.717 8.5 333 16.5 101870 49
2009-09-30 07:19:29 51°15.192 2°53.692 9.3 335 16.5 101870 49
2009-09-30 07:19:34 51°15.193 2°53.668 9.2 331 16.5 101870 47
2009-09-30 07:19:39 51°15.195 2°53.643 8.3 335 16.5 101870 47
2009-09-30 07:19:44 51°15.196 2°53.618 9.8 336 16.5 101870 49
2009-09-30 07:19:49 51°15.197 2°53.593 10 336 16.5 101870 49
2009-09-30 07:19:54 51°15.197 2°53.568 8.7 335 16.5 101870 44
2009-09-30 07:19:59 51°15.198 2°53.543 9.7 336 16.5 101870 44
2009-09-30 07:20:04 51°15.198 2°53.518 8.5 335 16.6 101870 48
2009-09-30 07:20:09 51°15.199 2°53.492 8.8 335 16.6 101870 48
2009-09-30 07:20:14 51°15.199 2°53.467 8.6 334 16.6 101870 45
2009-09-30 07:20:19 51°15.2 2°53.442 9.7 335 16.6 101870 45
2009-09-30 07:20:24 51°15.2 2°53.417 9.9 336 16.6 101870 44
2009-09-30 07:20:29 51°15.2 2°53.391 9.1 335 16.6 101870 44
2009-09-30 07:20:34 51°15.2 2°53.366 8.5 336 16.6 101870 46
2009-09-30 07:20:39 51°15.201 2°53.341 8.5 336 16.6 101870 46
2009-09-30 07:20:44 51°15.201 2°53.316 9.7 336 16.6 101870 48
2009-09-30 07:20:49 51°15.201 2°53.29 8.9 335 16.6 101870 48
2009-09-30 07:20:54 51°15.201 2°53.265 8.6 333 16.6 101880 46
2009-09-30 07:20:59 51°15.201 2°53.24 9.8 337 16.6 101880 46
2009-09-30 07:21:04 51°15.201 2°53.214 9.7 333 16.6 101870 44
2009-09-30 07:21:09 51°15.201 2°53.189 10.1 335 16.6 101870 44
2009-09-30 07:21:14 51°15.202 2°53.164 8.6 333 16.6 101870 45
2009-09-30 07:21:19 51°15.202 2°53.138 9.2 334 16.6 101870 45
2009-09-30 07:21:24 51°15.204 2°53.113 9.2 333 16.6 101880 45
2009-09-30 07:21:29 51°15.204 2°53.088 10.7 333 16.6 101880 45
2009-09-30 07:21:34 51°15.206 2°53.063 10.2 334 16.6 101880 45
2009-09-30 07:21:39 51°15.207 2°53.037 10.7 334 16.6 101880 45
2009-09-30 07:21:44 51°15.208 2°53.012 10.2 333 16.6 101870 44
2009-09-30 07:21:49 51°15.21 2°52.987 10.6 333 16.6 101870 44
2009-09-30 07:21:54 51°15.211 2°52.962 10.3 333 16.6 101880 44
2009-09-30 07:21:59 51°15.213 2°52.937 10.5 334 16.6 101880 44
2009-09-30 07:22:04 51°15.214 2°52.912 10.3 331 16.6 101860 45
2009-09-30 07:22:09 51°15.216 2°52.887 10.2 334 16.6 101860 45
2009-09-30 07:22:14 51°15.218 2°52.862 8.8 333 16.6 101880 44
2009-09-30 07:22:19 51°15.219 2°52.837 10.4 333 16.6 101880 44
2009-09-30 07:22:24 51°15.221 2°52.812 10.2 333 16.6 101880 44
2009-09-30 07:22:29 51°15.223 2°52.787 9.4 333 16.6 101880 44
2009-09-30 07:22:34 51°15.224 2°52.761 8.9 332 16.6 101870 46
2009-09-30 07:22:39 51°15.226 2°52.736 10.1 333 16.6 101870 46
2009-09-30 07:22:44 51°15.228 2°52.711 10.5 335 16.6 101870 48
2009-09-30 07:22:44 51°15.228 2°52.711 10.5 335 16.6 101870 48
2009-09-30 07:22:55 51°15.232 2°52.656 10.4 282 16.6 101880 46
2009-09-30 07:23:00 51°15.234 2°52.632 9.1 332 16.6 101880 46
2009-09-30 07:23:05 51°15.235 2°52.606 10.1 283 16.6 101880 46
2009-09-30 07:23:09 51°15.236 2°52.586 10.3 334 16.6 101880 46
2009-09-30 07:23:15 51°15.238 2°52.556 10.3 285 16.6 101880 46
2009-09-30 07:23:20 51°15.241 2°52.531 9.1 332 16.6 101880 44
2009-09-30 07:23:25 51°15.242 2°52.506 9.1 278 16.6 101880 44
2009-09-30 07:23:30 51°15.244 2°52.481 9.3 332 16.6 101880 44
2009-09-30 07:23:35 51°15.246 2°52.456 9 277 16.6 101880 48
2009-09-30 07:23:40 51°15.248 2°52.431 10.4 335 16.6 101880 48
2009-09-30 07:23:45 51°15.25 2°52.406 9.4 281 16.6 101880 47
2009-09-30 07:23:50 51°15.252 2°52.381 9.3 334 16.6 101880 49
2009-09-30 07:23:55 51°15.253 2°52.356 9.5 283 16.6 101880 49
2009-09-30 07:24:00 51°15.255 2°52.331 10.7 332 16.6 101880 49
2009-09-30 07:24:05 51°15.257 2°52.306 9.6 286 16.6 101880 45
2009-09-30 07:24:10 51°15.259 2°52.28 9.7 333 16.6 101880 45
2009-09-30 07:24:15 51°15.26 2°52.255 9.3 282 16.7 101870 48
2009-09-30 07:24:20 51°15.262 2°52.23 10.7 332 16.7 101870 48
2009-09-30 07:24:39 51°15.269 2°52.134 10.8 334 16.7 101870 48
2009-09-30 07:24:44 51°15.271 2°52.109 9.6 334 16.7 101870 48
2009-09-30 07:24:49 51°15.273 2°52.083 9.4 334 16.7 101870 48
2009-09-30 07:24:53 51°15.274 2°52.063 10.6 335 16.6 101870 47
2009-09-30 07:24:59 51°15.276 2°52.033 9.8 335 16.6 101870 47
2009-09-30 07:25:04 51°15.278 2°52.007 10.2 335 16.6 101880 48
2009-09-30 07:25:09 51°15.28 2°51.982 10.5 334 16.6 101880 48
2009-09-30 07:25:14 51°15.282 2°51.957 9.4 335 16.6 101880 47
2009-09-30 07:25:19 51°15.283 2°51.932 10.5 334 16.6 101880 47
2009-09-30 07:25:24 51°15.285 2°51.906 11.3 335 16.7 101870 44
2009-09-30 07:25:29 51°15.287 2°51.881 11.2 335 16.7 101870 44
2009-09-30 07:25:34 51°15.288 2°51.856 9.8 335 16.7 101880 47
2009-09-30 07:25:39 51°15.29 2°51.831 11.1 333 16.7 101880 47
2009-09-30 07:25:44 51°15.293 2°51.806 10.6 335 16.6 101880 44
2009-09-30 07:25:49 51°15.294 2°51.78 9.4 335 16.6 101880 44
2009-09-30 07:25:54 51°15.296 2°51.755 9.3 335 16.6 101880 47
2009-09-30 07:25:59 51°15.298 2°51.73 10.8 335 16.6 101880 47
2009-09-30 07:26:04 51°15.3 2°51.704 9.4 336 16.6 101890 44
2009-09-30 07:26:09 51°15.302 2°51.679 10.9 334 16.6 101890 44
2009-09-30 07:26:14 51°15.304 2°51.654 10.8 335 16.6 101880 47
2009-09-30 07:26:19 51°15.306 2°51.628 11.3 335 16.6 101880 47
2009-09-30 07:26:24 51°15.308 2°51.603 10 335 16.7 101870 48
2009-09-30 07:26:29 51°15.31 2°51.578 10.6 336 16.7 101870 48
2009-09-30 07:26:34 51°15.312 2°51.552 9.6 335 16.7 101880 48
2009-09-30 07:26:39 51°15.314 2°51.527 9.7 337 16.7 101880 48
2009-09-30 07:26:44 51°15.316 2°51.502 9.5 337 16.7 101890 47
2009-09-30 07:26:49 51°15.318 2°51.477 10.4 337 16.7 101890 47
2009-09-30 07:26:54 51°15.319 2°51.451 10.3 336 16.7 101890 44
2009-09-30 07:26:59 51°15.321 2°51.426 8.7 335 16.7 101890 44
2009-09-30 07:27:04 51°15.323 2°51.401 10.3 334 16.7 101870 44
2009-09-30 07:27:09 51°15.325 2°51.375 9.6 335 16.7 101870 44
2009-09-30 07:27:14 51°15.326 2°51.35 10.5 334 16.7 101890 48
2009-09-30 07:27:19 51°15.328 2°51.325 10.5 334 16.7 101890 48
2009-09-30 07:27:24 51°15.33 2°51.299 10.6 334 16.7 101890 47
2009-09-30 07:27:29 51°15.332 2°51.274 9.1 335 16.7 101890 47
2009-09-30 07:27:34 51°15.334 2°51.249 9 336 16.7 101890 43
2009-09-30 07:27:39 51°15.336 2°51.224 10.3 335 16.7 101890 43
2009-09-30 07:27:44 51°15.337 2°51.199 10.7 334 16.7 101880 47
2009-09-30 07:27:49 51°15.34 2°51.174 11.1 336 16.7 101880 47
2009-09-30 07:27:54 51°15.341 2°51.15 10.7 336 16.7 101890 46
2009-09-30 07:27:59 51°15.343 2°51.125 10.9 335 16.7 101890 46
2009-09-30 07:28:04 51°15.345 2°51.1 9.6 335 16.7 101880 48
2009-09-30 07:28:09 51°15.347 2°51.075 9.9 334 16.7 101880 48
2009-09-30 07:28:14 51°15.349 2°51.051 10.4 335 16.7 101880 46
2009-09-30 07:28:19 51°15.351 2°51.026 9.4 336 16.7 101880 46
2009-09-30 07:28:24 51°15.353 2°51.002 10.8 333 16.7 101880 49
2009-09-30 07:28:29 51°15.354 2°50.977 10.3 335 16.7 101880 49
2009-09-30 07:28:34 51°15.356 2°50.952 10.7 335 16.7 101880 47
2009-09-30 07:28:39 51°15.359 2°50.928 10.6 335 16.7 101880 47
2009-09-30 07:28:44 51°15.36 2°50.903 9.3 335 16.7 101890 46
2009-09-30 07:28:49 51°15.362 2°50.879 10.6 335 16.7 101890 46
2009-09-30 07:28:54 51°15.364 2°50.854 10.7 334 16.7 101880 45
2009-09-30 07:28:59 51°15.367 2°50.83 11 335 16.7 101880 45
2009-09-30 07:29:04 51°15.369 2°50.805 10.8 336 16.7 101890 44
2009-09-30 07:29:09 51°15.371 2°50.78 10.6 336 16.7 101890 44
2009-09-30 07:29:14 51°15.373 2°50.756 9.5 335 16.7 101880 47
2009-09-30 07:29:19 51°15.375 2°50.731 9.5 336 16.7 101880 47
2009-09-30 07:29:24 51°15.378 2°50.707 9.4 336 16.7 101880 47
2009-09-30 07:29:29 51°15.38 2°50.682 9.7 336 16.7 101880 47
2009-09-30 07:29:34 51°15.382 2°50.657 10.8 336 16.7 101890 45
2009-09-30 07:29:39 51°15.384 2°50.633 8.5 335 16.7 101890 45
2009-09-30 07:29:44 51°15.387 2°50.608 9.8 335 16.7 101880 44
2009-09-30 07:29:49 51°15.389 2°50.584 10.5 337 16.7 101880 44
2009-09-30 07:29:54 51°15.389 2°50.559 10.6 337 16.7 101880 44
2009-09-30 07:29:59 51°15.39 2°50.534 8.9 337 16.7 101880 44
2009-09-30 07:30:04 51°15.39 2°50.509 10 336 16.6 101880 45
2009-09-30 07:30:09 51°15.39 2°50.484 10.7 337 16.6 101880 45
2009-09-30 07:30:14 51°15.39 2°50.459 9.7 337 16.7 101880 46
2009-09-30 07:30:19 51°15.39 2°50.435 10.4 340 16.7 101880 46
2009-09-30 07:30:24 51°15.389 2°50.41 10.3 338 16.7 101890 45
2009-09-30 07:30:29 51°15.389 2°50.384 9.3 340 16.7 101890 45
2009-09-30 07:30:34 51°15.388 2°50.36 9.3 337 16.7 101880 45
2009-09-30 07:30:39 51°15.386 2°50.334 10.2 339 16.7 101880 45
2009-09-30 07:30:44 51°15.385 2°50.31 10.8 339 16.7 101890 48
2009-09-30 07:30:49 51°15.384 2°50.285 10.4 338 16.7 101890 48
2009-09-30 07:30:54 51°15.382 2°50.26 10.7 338 16.7 101870 45
2009-09-30 07:30:59 51°15.382 2°50.235 9.7 338 16.7 101870 45
2009-09-30 07:31:04 51°15.38 2°50.21 10.8 338 16.7 101890 47
2009-09-30 07:31:09 51°15.379 2°50.185 9.5 340 16.7 101890 47
2009-09-30 07:31:14 51°15.378 2°50.16 8.9 339 16.7 101870 48
2009-09-30 07:31:19 51°15.376 2°50.135 10.1 340 16.7 101870 48
2009-09-30 07:31:24 51°15.375 2°50.11 10.7 341 16.7 101880 47
2009-09-30 07:31:29 51°15.373 2°50.085 9.1 339 16.7 101880 47
2009-09-30 07:31:34 51°15.372 2°50.06 10.5 341 16.7 101890 44
2009-09-30 07:31:39 51°15.37 2°50.035 9.1 340 16.7 101890 44
2009-09-30 07:31:44 51°15.369 2°50.01 10.7 340 16.7 101880 47
2009-09-30 07:31:49 51°15.369 2°49.985 10.1 340 16.7 101880 47
2009-09-30 07:31:54 51°15.367 2°49.96 8.9 339 16.7 101880 47
2009-09-30 07:31:59 51°15.365 2°49.935 9.1 339 16.7 101880 47
2009-09-30 07:32:04 51°15.363 2°49.91 9 339 16.7 101880 47
2009-09-30 07:32:09 51°15.362 2°49.885 9.3 340 16.7 101880 47
2009-09-30 07:32:14 51°15.36 2°49.861 9.1 339 16.7 101880 44
2009-09-30 07:32:19 51°15.359 2°49.836 9.6 339 16.7 101880 44
2009-09-30 07:32:24 51°15.357 2°49.811 10.7 340 16.7 101880 46
2009-09-30 07:32:29 51°15.355 2°49.786 10.7 341 16.7 101880 46
2009-09-30 07:32:34 51°15.354 2°49.761 11 341 16.7 101880 48
2009-09-30 07:32:39 51°15.352 2°49.737 10.5 340 16.7 101880 48
2009-09-30 07:32:44 51°15.351 2°49.712 9.1 341 16.7 101880 47
2009-09-30 07:32:49 51°15.349 2°49.687 10.2 337 16.7 101880 47
2009-09-30 07:32:54 51°15.348 2°49.662 10.4 339 16.7 101890 47
2009-09-30 07:32:59 51°15.347 2°49.637 8.7 338 16.7 101890 47
2009-09-30 07:33:04 51°15.345 2°49.613 9.9 339 16.7 101880 48
2009-09-30 07:33:09 51°15.344 2°49.588 9.3 338 16.7 101880 48
2009-09-30 07:33:14 51°15.342 2°49.563 10.1 338 16.7 101880 46
2009-09-30 07:33:19 51°15.342 2°49.538 10 338 16.7 101880 46
2009-09-30 07:33:24 51°15.34 2°49.513 9.3 339 16.7 101890 45
2009-09-30 07:33:29 51°15.34 2°49.488 10.9 337 16.7 101890 45
2009-09-30 07:33:34 51°15.339 2°49.464 9.9 338 16.7 101880 45
2009-09-30 07:33:39 51°15.338 2°49.439 10.7 338 16.7 101880 45
2009-09-30 07:33:44 51°15.337 2°49.414 9.7 339 16.7 101870 47
2009-09-30 07:33:49 51°15.335 2°49.389 9.5 339 16.7 101870 47
2009-09-30 07:33:54 51°15.334 2°49.365 9.2 338 16.7 101880 48
2009-09-30 07:33:59 51°15.333 2°49.34 9 338 16.7 101880 48
2009-09-30 07:34:04 51°15.332 2°49.316 10.1 338 16.7 101880 46
2009-09-30 07:34:09 51°15.331 2°49.291 8.9 338 16.7 101880 46
2009-09-30 07:34:14 51°15.33 2°49.266 10.6 338 16.7 101880 47
2009-09-30 07:34:19 51°15.329 2°49.242 9 340 16.7 101880 47
2009-09-30 07:34:24 51°15.328 2°49.217 10 340 16.7 101880 44
2009-09-30 07:34:29 51°15.327 2°49.193 9.9 340 16.7 101880 44
2009-09-30 07:34:34 51°15.326 2°49.168 10.2 341 16.7 101880 48
2009-09-30 07:34:39 51°15.325 2°49.143 10.6 340 16.7 101880 48
2009-09-30 07:34:44 51°15.324 2°49.119 10.3 338 16.7 101880 48
2009-09-30 07:34:49 51°15.323 2°49.094 9.3 338 16.7 101880 48
2009-09-30 07:34:54 51°15.322 2°49.07 10.7 340 16.7 101880 45
2009-09-30 07:34:59 51°15.321 2°49.045 10.6 340 16.7 101880 45
2009-09-30 07:35:04 51°15.32 2°49.021 9.7 340 16.7 101880 45
2009-09-30 07:35:09 51°15.319 2°48.997 10.7 341 16.7 101880 45
2009-09-30 07:35:14 51°15.318 2°48.972 9.6 340 16.7 101880 47
2009-09-30 07:35:19 51°15.317 2°48.948 9.6 340 16.7 101880 47
2009-09-30 07:35:24 51°15.316 2°48.923 10.7 341 16.7 101880 44
2009-09-30 07:35:29 51°15.315 2°48.899 9.4 341 16.7 101880 44
2009-09-30 07:35:34 51°15.314 2°48.874 10.9 342 16.7 101870 44
2009-09-30 07:35:39 51°15.312 2°48.85 10.4 340 16.7 101870 44
2009-09-30 07:35:44 51°15.311 2°48.825 8.8 339 16.7 101880 44
2009-09-30 07:35:49 51°15.311 2°48.8 11 341 16.7 101880 44
2009-09-30 07:35:54 51°15.309 2°48.776 9.3 338 16.7 101880 45
2009-09-30 07:35:59 51°15.309 2°48.751 11 340 16.7 101880 45
2009-09-30 07:36:04 51°15.308 2°48.726 9.6 340 16.7 101870 48
2009-09-30 07:36:09 51°15.308 2°48.702 10.5 340 16.7 101870 48
2009-09-30 07:36:14 51°15.307 2°48.677 9.2 339 16.7 101880 44
2009-09-30 07:36:19 51°15.306 2°48.652 9.4 337 16.7 101880 44
2009-09-30 07:36:24 51°15.305 2°48.628 10.9 338 16.7 101880 45
2009-09-30 07:36:29 51°15.304 2°48.603 10.8 339 16.7 101880 45
2009-09-30 07:36:34 51°15.303 2°48.579 10.8 340 16.7 101880 48
2009-09-30 07:36:39 51°15.303 2°48.554 8.9 340 16.7 101880 48
2009-09-30 07:36:44 51°15.302 2°48.53 9 340 16.7 101880 44
2009-09-30 07:36:49 51°15.301 2°48.505 9.3 340 16.7 101880 44
2009-09-30 07:36:54 51°15.3 2°48.48 10.1 339 16.7 101870 48
2009-09-30 07:36:59 51°15.299 2°48.456 10.2 338 16.7 101870 48
2009-09-30 07:37:04 51°15.298 2°48.431 9.2 340 16.7 101870 46
2009-09-30 07:37:09 51°15.298 2°48.407 10.6 339 16.7 101870 46
2009-09-30 07:37:14 51°15.297 2°48.382 10.3 338 16.7 101880 46
2009-09-30 07:37:19 51°15.296 2°48.357 10.3 339 16.7 101880 46
2009-09-30 07:37:24 51°15.296 2°48.333 10.3 339 16.7 101880 44
2009-09-30 07:37:29 51°15.295 2°48.308 10.4 339 16.7 101880 44
2009-09-30 07:37:34 51°15.295 2°48.283 9.1 337 16.7 101880 44
2009-09-30 07:37:39 51°15.294 2°48.259 10.2 339 16.7 101880 44
2009-09-30 07:37:44 51°15.293 2°48.234 10.1 339 16.7 101880 45
2009-09-30 07:37:49 51°15.293 2°48.21 10.2 340 16.7 101880 45
2009-09-30 07:37:54 51°15.292 2°48.185 9.9 338 16.7 101880 47
2009-09-30 07:37:59 51°15.291 2°48.161 9 340 16.7 101880 47
2009-09-30 07:38:04 51°15.291 2°48.136 9.7 338 16.7 101880 44
2009-09-30 07:38:09 51°15.29 2°48.111 10.1 339 16.7 101880 44
2009-09-30 07:38:14 51°15.289 2°48.087 10 339 16.7 101880 47
2009-09-30 07:38:19 51°15.288 2°48.063 9 339 16.7 101880 47
2009-09-30 07:38:24 51°15.287 2°48.038 8.7 339 16.7 101880 44
2009-09-30 07:38:29 51°15.286 2°48.013 8.7 338 16.7 101880 44
2009-09-30 07:38:34 51°15.285 2°47.989 8.5 339 16.7 101880 46
2009-09-30 07:38:39 51°15.285 2°47.964 10 340 16.7 101880 46
2009-09-30 07:38:44 51°15.284 2°47.94 8.7 340 16.7 101880 47
2009-09-30 07:38:49 51°15.283 2°47.915 8.6 339 16.7 101880 47
2009-09-30 07:38:54 51°15.282 2°47.891 8.4 339 16.7 101870 47
2009-09-30 07:38:59 51°15.281 2°47.866 9.5 340 16.7 101870 47
2009-09-30 07:39:04 51°15.279 2°47.842 9.5 341 16.7 101870 47
2009-09-30 07:39:09 51°15.278 2°47.817 9.5 340 16.7 101870 47
2009-09-30 07:39:14 51°15.276 2°47.793 9.2 338 16.7 101870 47
2009-09-30 07:39:19 51°15.276 2°47.769 8.3 339 16.7 101870 47
2009-09-30 07:39:24 51°15.274 2°47.744 8.5 339 16.7 101880 43
2009-09-30 07:39:29 51°15.273 2°47.72 8.1 340 16.7 101880 43
2009-09-30 07:39:34 51°15.272 2°47.695 8.5 339 16.7 101880 45
2009-09-30 07:39:39 51°15.27 2°47.671 9.6 338 16.7 101880 45
2009-09-30 07:39:44 51°15.27 2°47.647 9.4 339 16.7 101880 44
2009-09-30 07:39:49 51°15.268 2°47.622 8.2 339 16.7 101880 44
2009-09-30 07:39:54 51°15.267 2°47.598 9.6 340 16.7 101880 44
2009-09-30 07:39:59 51°15.266 2°47.574 9.1 342 16.7 101880 44
2009-09-30 07:40:04 51°15.265 2°47.549 10 341 16.7 101880 47
2009-09-30 07:40:09 51°15.263 2°47.525 10.1 340 16.7 101880 47
2009-09-30 07:40:14 51°15.263 2°47.501 8.6 340 16.7 101880 46
2009-09-30 07:40:19 51°15.261 2°47.476 8 341 16.7 101880 46
2009-09-30 07:40:24 51°15.261 2°47.452 8.3 340 16.7 101880 47
2009-09-30 07:40:29 51°15.26 2°47.427 8.8 338 16.7 101880 47
2009-09-30 07:40:34 51°15.259 2°47.403 8.7 337 16.7 101880 45
2009-09-30 07:40:39 51°15.258 2°47.379 9.9 337 16.7 101880 45
2009-09-30 07:40:44 51°15.257 2°47.354 9.5 337 16.7 101880 48
2009-09-30 07:40:49 51°15.255 2°47.33 8.1 338 16.7 101880 48
2009-09-30 07:40:54 51°15.254 2°47.305 9.8 337 16.7 101880 42
2009-09-30 07:40:59 51°15.253 2°47.281 9.4 337 16.7 101880 42
2009-09-30 07:41:04 51°15.252 2°47.256 9.7 338 16.7 101880 46
2009-09-30 07:41:09 51°15.251 2°47.232 9.6 338 16.7 101880 46
2009-09-30 07:41:14 51°15.25 2°47.207 9.8 339 16.7 101880 46
2009-09-30 07:41:19 51°15.249 2°47.183 8.2 339 16.7 101880 46
2009-09-30 07:41:24 51°15.249 2°47.158 9.7 340 16.7 101880 44
2009-09-30 07:41:29 51°15.248 2°47.134 9.6 340 16.7 101880 44
2009-09-30 07:41:34 51°15.247 2°47.109 8.8 340 16.7 101880 48
2009-09-30 07:41:39 51°15.246 2°47.085 8.6 342 16.7 101880 48
2009-09-30 07:41:44 51°15.245 2°47.06 8.4 339 16.7 101880 45
2009-09-30 07:41:49 51°15.244 2°47.036 10.4 341 16.7 101880 45
2009-09-30 07:41:54 51°15.244 2°47.012 10.5 340 16.7 101880 44
2009-09-30 07:41:59 51°15.243 2°46.987 9.3 342 16.7 101880 44
2009-09-30 07:42:04 51°15.242 2°46.963 9 340 16.7 101880 48
2009-09-30 07:42:09 51°15.241 2°46.938 10.4 342 16.7 101880 48
2009-09-30 07:42:14 51°15.24 2°46.914 9.1 342 16.7 101880 43
2009-09-30 07:42:19 51°15.24 2°46.889 8.5 341 16.7 101880 43
2009-09-30 07:42:24 51°15.239 2°46.865 10.4 339 16.7 101870 48
2009-09-30 07:42:29 51°15.238 2°46.84 10.4 341 16.7 101870 48
2009-09-30 07:42:34 51°15.237 2°46.816 8.9 340 16.7 101880 45
2009-09-30 07:42:39 51°15.236 2°46.791 9.1 341 16.7 101880 45
2009-09-30 07:42:44 51°15.235 2°46.767 9.1 341 16.7 101880 44
2009-09-30 07:42:49 51°15.234 2°46.743 9.4 342 16.7 101880 44
2009-09-30 07:42:54 51°15.234 2°46.718 8.8 341 16.7 101880 48
2009-09-30 07:42:59 51°15.233 2°46.694 9.5 341 16.7 101880 48
2009-09-30 07:43:04 51°15.233 2°46.67 9.9 341 16.7 101880 48
2009-09-30 07:43:09 51°15.232 2°46.645 8.8 341 16.7 101880 48
2009-09-30 07:43:14 51°15.231 2°46.621 9.9 340 16.7 101880 48
2009-09-30 07:43:19 51°15.23 2°46.596 9.1 340 16.7 101880 48
2009-09-30 07:43:24 51°15.23 2°46.572 10 340 16.7 101890 48
2009-09-30 07:43:29 51°15.228 2°46.547 9.7 343 16.7 101890 48
2009-09-30 07:43:34 51°15.229 2°46.523 10.1 341 16.7 101880 46
2009-09-30 07:43:39 51°15.228 2°46.498 8.7 342 16.7 101880 46
2009-09-30 07:43:44 51°15.228 2°46.474 8.2 341 16.7 101880 46
2009-09-30 07:43:49 51°15.227 2°46.449 9.2 341 16.7 101880 46
2009-09-30 07:43:54 51°15.227 2°46.425 9.5 343 16.7 101890 45
2009-09-30 07:43:59 51°15.225 2°46.4 9.2 341 16.7 101890 45
2009-09-30 07:44:04 51°15.225 2°46.376 9.1 340 16.7 101880 48
2009-09-30 07:44:09 51°15.224 2°46.351 9.8 339 16.7 101880 48
2009-09-30 07:44:14 51°15.224 2°46.327 9.9 337 16.7 101880 44
2009-09-30 07:44:19 51°15.223 2°46.302 9.7 339 16.7 101880 44
2009-09-30 07:44:24 51°15.222 2°46.278 9 339 16.7 101880 44
2009-09-30 07:44:29 51°15.221 2°46.254 10.6 340 16.7 101880 44
2009-09-30 07:44:34 51°15.221 2°46.229 9.4 340 16.7 101880 46
2009-09-30 07:44:39 51°15.219 2°46.205 9.3 341 16.7 101880 46
2009-09-30 07:44:44 51°15.219 2°46.18 9.1 338 16.7 101880 45
2009-09-30 07:44:49 51°15.218 2°46.156 9.8 338 16.7 101880 45
2009-09-30 07:44:54 51°15.217 2°46.131 9.6 339 16.7 101880 44
2009-09-30 07:44:59 51°15.216 2°46.107 10.4 340 16.7 101880 44
2009-09-30 07:45:04 51°15.216 2°46.082 9.5 339 16.7 101880 46
2009-09-30 07:45:09 51°15.215 2°46.058 10.5 340 16.7 101880 46
2009-09-30 07:45:14 51°15.215 2°46.034 9.2 341 16.7 101880 46
2009-09-30 07:45:19 51°15.214 2°46.009 9.1 340 16.7 101880 46
2009-09-30 07:45:24 51°15.213 2°45.984 9.1 339 16.7 101890 45
2009-09-30 07:45:29 51°15.213 2°45.96 8.6 339 16.7 101890 45
2009-09-30 07:45:34 51°15.212 2°45.936 8.7 340 16.7 101880 47
2009-09-30 07:45:39 51°15.211 2°45.911 8.9 339 16.7 101880 47
2009-09-30 07:45:44 51°15.211 2°45.887 9.2 341 16.7 101880 47
2009-09-30 07:45:49 51°15.21 2°45.862 9 339 16.7 101880 47
2009-09-30 07:45:54 51°15.209 2°45.838 8.8 338 16.7 101880 47
2009-09-30 07:45:59 51°15.209 2°45.813 9.1 338 16.7 101880 47
2009-09-30 07:46:04 51°15.207 2°45.789 10.6 339 16.7 101880 46
2009-09-30 07:46:09 51°15.207 2°45.765 10.3 339 16.7 101880 46
2009-09-30 07:46:14 51°15.204 2°45.741 8.9 338 16.7 101880 46
2009-09-30 07:46:19 51°15.204 2°45.717 8.6 341 16.7 101880 46
2009-09-30 07:46:24 51°15.2 2°45.693 8.7 342 16.7 101880 45
2009-09-30 07:46:29 51°15.198 2°45.669 9.6 343 16.7 101880 45
2009-09-30 07:46:34 51°15.195 2°45.645 9.9 341 16.7 101880 43
2009-09-30 07:46:39 51°15.192 2°45.621 10.4 341 16.7 101880 43
2009-09-30 07:46:44 51°15.189 2°45.597 9.6 340 16.7 101880 45
2009-09-30 07:46:49 51°15.186 2°45.573 10.1 342 16.7 101880 45
2009-09-30 07:46:54 51°15.184 2°45.548 9.1 342 16.7 101890 45
2009-09-30 07:46:59 51°15.18 2°45.525 10.1 341 16.7 101890 45
2009-09-30 07:47:04 51°15.178 2°45.5 9.8 342 16.7 101880 47
2009-09-30 07:47:09 51°15.176 2°45.476 8.6 342 16.7 101880 47
2009-09-30 07:47:14 51°15.173 2°45.452 10.3 342 16.7 101880 43
2009-09-30 07:47:19 51°15.171 2°45.428 9.7 339 16.7 101880 43
2009-09-30 07:47:24 51°15.169 2°45.404 8.2 339 16.7 101880 48
2009-09-30 07:47:29 51°15.167 2°45.38 8.7 339 16.7 101880 48
2009-09-30 07:47:34 51°15.164 2°45.356 10 339 16.7 101880 44
2009-09-30 07:47:39 51°15.162 2°45.332 10.4 341 16.7 101880 44
2009-09-30 07:47:44 51°15.16 2°45.308 9.9 339 16.7 101880 44
2009-09-30 07:47:49 51°15.157 2°45.283 9 341 16.7 101880 44
2009-09-30 07:47:54 51°15.156 2°45.259 10 339 16.7 101880 48
2009-09-30 07:47:59 51°15.153 2°45.235 10.2 339 16.7 101880 48
2009-09-30 07:48:04 51°15.151 2°45.211 8.4 340 16.7 101890 46
2009-09-30 07:48:09 51°15.149 2°45.187 8.9 339 16.7 101890 46
2009-09-30 07:48:14 51°15.147 2°45.163 9.4 340 16.7 101880 47
2009-09-30 07:48:19 51°15.144 2°45.139 8.9 341 16.7 101880 47
2009-09-30 07:48:24 51°15.143 2°45.115 10 340 16.6 101880 46
2009-09-30 07:48:29 51°15.14 2°45.091 8.7 343 16.6 101880 46
2009-09-30 07:48:34 51°15.138 2°45.067 9.2 342 16.7 101880 48
2009-09-30 07:48:39 51°15.135 2°45.043 10.2 343 16.7 101880 48
2009-09-30 07:48:44 51°15.134 2°45.018 9.4 345 16.7 101880 46
2009-09-30 07:48:49 51°15.131 2°44.994 9.8 342 16.7 101880 46
2009-09-30 07:48:54 51°15.129 2°44.97 8.5 341 16.7 101880 44
2009-09-30 07:48:59 51°15.127 2°44.946 10.4 342 16.7 101880 44
2009-09-30 07:49:04 51°15.125 2°44.922 10.4 343 16.7 101880 47
2009-09-30 07:49:09 51°15.123 2°44.898 9.2 338 16.7 101880 47
2009-09-30 07:49:14 51°15.12 2°44.873 10.6 340 16.7 101880 43
2009-09-30 07:49:19 51°15.118 2°44.849 9 339 16.7 101880 43
2009-09-30 07:49:24 51°15.116 2°44.825 10.3 339 16.7 101880 47
2009-09-30 07:49:29 51°15.114 2°44.801 8.9 341 16.7 101880 47
2009-09-30 07:49:34 51°15.112 2°44.776 9.5 340 16.7 101880 47
2009-09-30 07:49:39 51°15.11 2°44.752 9.1 340 16.7 101880 47
2009-09-30 07:49:44 51°15.108 2°44.728 10.5 340 16.7 101880 44
2009-09-30 07:49:49 51°15.106 2°44.704 9.3 341 16.7 101880 44
2009-09-30 07:49:54 51°15.104 2°44.68 10.4 341 16.7 101890 46
2009-09-30 07:49:59 51°15.102 2°44.656 9.1 341 16.7 101890 46
2009-09-30 07:50:04 51°15.1 2°44.632 10.5 341 16.7 101880 46
2009-09-30 07:50:09 51°15.097 2°44.608 10.2 341 16.7 101880 46
2009-09-30 07:50:14 51°15.095 2°44.584 10.1 341 16.6 101880 46
2009-09-30 07:50:19 51°15.093 2°44.56 8.5 339 16.6 101880 46
2009-09-30 07:50:24 51°15.091 2°44.536 10.1 341 16.6 101890 45
2009-09-30 07:50:29 51°15.089 2°44.512 8.9 340 16.6 101890 45
2009-09-30 07:50:34 51°15.087 2°44.488 10 342 16.6 101880 44
2009-09-30 07:50:39 51°15.086 2°44.463 8.6 341 16.6 101880 44
2009-09-30 07:50:44 51°15.083 2°44.439 8.9 343 16.7 101880 48
2009-09-30 07:50:49 51°15.081 2°44.415 8.6 339 16.7 101880 48
2009-09-30 07:50:54 51°15.08 2°44.391 9.1 341 16.6 101890 47
2009-09-30 07:50:59 51°15.077 2°44.367 10.5 340 16.6 101890 47
2009-09-30 07:51:04 51°15.075 2°44.343 10.2 339 16.6 101890 45
2009-09-30 07:51:09 51°15.073 2°44.319 10 339 16.6 101890 45
2009-09-30 07:51:14 51°15.071 2°44.295 9 340 16.7 101880 43
2009-09-30 07:51:19 51°15.069 2°44.271 9.1 340 16.7 101880 43
2009-09-30 07:51:24 51°15.067 2°44.247 8.8 340 16.7 101890 46
2009-09-30 07:51:29 51°15.065 2°44.223 9.3 341 16.7 101890 46
2009-09-30 07:51:34 51°15.062 2°44.199 10.3 340 16.7 101880 46
2009-09-30 07:51:39 51°15.06 2°44.174 10.6 341 16.7 101880 46
2009-09-30 07:51:44 51°15.058 2°44.15 10.6 343 16.7 101880 43
2009-09-30 07:51:49 51°15.057 2°44.126 9.5 341 16.7 101880 43
2009-09-30 07:51:54 51°15.054 2°44.101 10.4 341 16.7 101880 47
2009-09-30 07:51:59 51°15.053 2°44.077 8.7 340 16.7 101880 47
2009-09-30 07:52:04 51°15.051 2°44.053 10.3 341 16.7 101890 48
2009-09-30 07:52:09 51°15.049 2°44.028 8.9 342 16.7 101890 48
2009-09-30 07:52:14 51°15.047 2°44.004 10.6 342 16.7 101880 45
2009-09-30 07:52:19 51°15.045 2°43.98 10.4 343 16.7 101880 45
2009-09-30 07:52:24 51°15.043 2°43.956 8.8 342 16.7 101880 46
2009-09-30 07:52:29 51°15.041 2°43.932 11 342 16.7 101880 46
2009-09-30 07:52:34 51°15.038 2°43.908 10.4 342 16.7 101880 43
2009-09-30 07:52:39 51°15.036 2°43.884 9.3 341 16.7 101880 43
2009-09-30 07:52:44 51°15.034 2°43.859 9.2 341 16.7 101880 47
2009-09-30 07:52:49 51°15.032 2°43.835 10.2 341 16.7 101880 47
2009-09-30 07:52:54 51°15.03 2°43.811 10.5 340 16.7 101880 44
2009-09-30 07:52:59 51°15.028 2°43.787 10.1 340 16.7 101880 44
2009-09-30 07:53:04 51°15.025 2°43.763 9 341 16.7 101880 43
2009-09-30 07:53:09 51°15.023 2°43.739 8.8 341 16.7 101880 43
2009-09-30 07:53:14 51°15.021 2°43.715 9 341 16.7 101890 47
2009-09-30 07:53:19 51°15.018 2°43.691 9.8 339 16.7 101890 47
2009-09-30 07:53:24 51°15.016 2°43.667 9 341 16.7 101890 48
2009-09-30 07:53:29 51°15.014 2°43.643 9.1 341 16.7 101890 48
2009-09-30 07:53:34 51°15.012 2°43.619 9.1 342 16.7 101890 46
2009-09-30 07:53:39 51°15.01 2°43.594 10 342 16.7 101890 46
2009-09-30 07:53:44 51°15.008 2°43.57 9 343 16.7 101880 46
2009-09-30 07:53:49 51°15.006 2°43.546 9.6 342 16.7 101880 46
2009-09-30 07:53:54 51°15.003 2°43.522 8.9 343 16.7 101880 47
2009-09-30 07:53:59 51°15.001 2°43.498 8.8 343 16.7 101880 47
2009-09-30 07:54:04 51°14.999 2°43.474 8.8 343 16.6 101890 47
2009-09-30 07:54:09 51°14.997 2°43.45 8.7 342 16.6 101890 47
2009-09-30 07:54:14 51°14.995 2°43.426 9.7 345 16.7 101880 46
2009-09-30 07:54:19 51°14.992 2°43.402 8.6 343 16.7 101880 46
2009-09-30 07:54:24 51°14.99 2°43.378 8.9 342 16.7 101880 44
2009-09-30 07:54:29 51°14.988 2°43.354 8.8 342 16.7 101880 44
2009-09-30 07:54:34 51°14.986 2°43.33 8.7 342 16.7 101880 46
2009-09-30 07:54:39 51°14.984 2°43.306 9.7 342 16.7 101880 46
2009-09-30 07:54:44 51°14.981 2°43.283 9.5 340 16.7 101890 48
2009-09-30 07:54:49 51°14.98 2°43.258 9.9 341 16.7 101890 48
2009-09-30 07:54:54 51°14.978 2°43.234 8.6 342 16.7 101880 47
2009-09-30 07:54:59 51°14.976 2°43.21 10.8 340 16.7 101880 47
2009-09-30 07:55:04 51°14.974 2°43.186 9.4 341 16.7 101880 44
2009-09-30 07:55:09 51°14.972 2°43.162 9.7 341 16.7 101880 44
2009-09-30 07:55:14 51°14.97 2°43.139 8.7 340 16.7 101890 48
2009-09-30 07:55:19 51°14.967 2°43.115 9.4 342 16.7 101890 48
2009-09-30 07:55:24 51°14.961 2°43.094 8.5 343 16.7 101880 43
2009-09-30 07:55:29 51°14.955 2°43.073 8.2 343 16.7 101880 43
2009-09-30 07:55:34 51°14.947 2°43.052 8 347 16.7 101880 47
2009-09-30 07:55:39 51°14.941 2°43.031 7.9 344 16.7 101880 47
2009-09-30 07:55:44 51°14.932 2°43.011 8.2 345 16.7 101880 43
2009-09-30 07:55:49 51°14.925 2°42.991 8.7 347 16.7 101880 43
2009-09-30 07:55:54 51°14.915 2°42.973 7.4 348 16.6 101880 44
2009-09-30 07:55:59 51°14.905 2°42.955 8.8 351 16.6 101880 44
2009-09-30 07:56:04 51°14.895 2°42.937 7.7 351 16.6 101890 45